Regional Weather Roundup
Issued by NWS Newport/Morehead, NC

Current Version | Previous Version | Graphics & Text | Print | Product List | Glossary On
Versions: 1 2 3 4 5 6 7 8 9 10 11 12 13 14 15 16 17 18 19 20 21 22 23 24 25 26 27 28 29 30 31 32 33 34 35 36 37 38 39 40 41 42 43 44 45 46 47 48 49 50
000 ASUS42 KMHX 201122 RWRMHX WEATHER ROUNDUP FOR EASTERN NORTH CAROLINA NATIONAL WEATHER SERVICE NEWPORT/MOREHEAD CITY NC 600 AM EST SAT DEC 20 2014 NOTE: "FAIR" INDICATES FEW OR NO CLOUDS BELOW 12,000 FEET WITH NO SIGNIFICANT WEATHER AND/OR OBSTRUCTIONS TO VISIBILITY NCZ015>017-031-032-045>047-102-103-201200- NORTH COAST CITY SKY/WX TMP DP RH WIND PRES REMARKS EDENTON N/A 33 30 87 N3 30.28R ELIZABETH CITY CLOUDY 38 29 70 N9 30.26R KITTY HAWK CLOUDY 39 32 76 N3 30.23R MANTEO CLOUDY 40 33 75 N7 30.24S $$ NCZ045>047-081-094-103-104-201200- CENTRAL COAST CITY SKY/WX TMP DP RH WIND PRES REMARKS FRISCO CLOUDY 42 34 73 NE3 30.23S SWANQUARTER N/A 37 N/A N/A NE1 30.21S $$ NCZ095-097-098-100-101-201200- SOUTHERN COAST CITY SKY/WX TMP DP RH WIND PRES REMARKS BEAUFORT CLOUDY 42 36 79 NE3 30.24R CEDAR ISLAND N/A 45 N/A N/A N8 30.27S JACKSONVILLE CLOUDY 41 35 79 NE6 30.24R PINEY ISLAND CLOUDY 46 37 71 NE7 30.24R WILMINGTON CLOUDY 43 39 86 NE7 30.21R $$ NCZ011>013-027>030-043-044-078>080-089-090>093-098-201200- COASTAL PLAIN CITY SKY/WX TMP DP RH WIND PRES REMARKS AHOSKIE CLOUDY 32 26 81 CALM 30.28R CLINTON CLOUDY 40 34 79 NE3 30.24S ELIZABETHTOWN CLOUDY 40 34 77 CALM 30.22R GOLDSBORO CLOUDY 37 36 97 NE2 30.24R GREENVILLE CLOUDY 34 32 93 N5 30.27R HAVELOCK CLOUDY 41 36 82 NE6 30.25R KENANSVILLE CLOUDY 37 34 87 CALM 30.26R KINSTON NOT AVBL NEW BERN CLOUDY 40 34 79 NE6 30.26R RICHLANDS CLOUDY 37 32 81 NE6 30.25R ROCKY MOUNT CLOUDY 34 28 79 NE3 30.27R WASHINGTON CLOUDY 34 31 89 N3 30.27R WHITEVILLE DRIZZLE 42 37 84 CALM 30.20R $$ AMZ130-135-150-152-154-156-158-170-250-252-270-ANZ085-086-088-633-658-670-201200- MARINE OBSERVATIONS STATION/POSITION TIME TEMP WIND PRES WAVE SWELL AIR SEA DIR/SP/G HT/PER HT/PER (UTC) (F) (DEG/KT/KT) (MB) (FT/S) (FT/S) CHESAPEAKE LIGHT 1100 39 10/ 7/ 9 1025.3 64 E VA BEACH 1100 43 54 360/ 10/ 14 1022.9 3/ 5 2/ 5 DUCK 1100 40 46 340/ 10/ 12 1023.2 2 E DUCK 1100 46 N/A 3/ 5 10 NE DUCK 1100 52 N/A 3/ 5 OREGON INLET 1100 42 49 350/ 7/ 10 1023.5 13E OREGON INLT 1100 52 N/A 3/ 6 HATTERAS CG 1100 44 51 40/ 6/ 8 1024.2 DIAMOND BUOY 1100 46 1023.6 3/ 6 17 S OCRACOKE NOT AVBL CAPE LOOKOUT 1100 47 10/ 7/ 9 1023.7 BEAUFORT LAB 1100 43 53 40/ 3/ 5 1022.9 30 SE NEW RIVER 1100 52 60 50/ 10/ 14 1023.5 2/ 4 2/11 5 SE WRIGHTSVLE NOT AVBL 225 S CAPE HAT 1012 65 72 60/ 8/ 12 1021.2 3/10 2/10 41 SE CHARLESTON 1100 64 69 50/ 17/ 19 1019.0 3/ 4 2/10 $$

USA.gov is the U.S. government's official web portal to all federal, state and local government web resources and services.